FW9406 Weather Reports


time (UTC)temp
C
wind
direction
speed
KPH
gust
KPH
rain 1hr
cm
rain 24hr
cm
rain mn
cm
humidity
%
barometer
mb
20260906123139 23 249 1.6 3.2 0.00 0.00 0.00 92 1014.9
20260906122638 23 239 0.0 3.2 0.00 0.00 0.00 93 1014.9
20260906122133 23 258 0.0 3.2 0.00 0.00 0.00 94 1014.9
20260906121629 23 274 1.6 3.2 0.00 0.00 0.00 94 1014.5
20260906121126 23 259 0.0 0.0 0.00 0.00 0.00 95 1014.5
20260906120621 22 234 0.0 0.0 0.00 0.00 0.00 95 1014.5
20260906120118 22 235 0.0 0.0 0.00 0.00 0.00 96 1014.5
20260906115618 22 234 0.0 0.0 0.00 0.00 0.00 96 1014.5
20260906115114 22 234 0.0 0.0 0.00 0.00 0.00 96 1014.5
20260906114613 22 234 0.0 0.0 0.00 0.00 0.00 96 1014.5
20260906114109 22 235 0.0 0.0 0.00 0.00 0.00 96 1014.2
20260906113608 22 242 0.0 0.0 0.00 0.00 0.00 96 1013.9
20260906113103 22 247 0.0 0.0 0.00 0.00 0.00 96 1014.2
20260906112557 22 234 0.0 0.0 0.00 0.00 0.00 96 1014.2
20260906112055 22 219 0.0 0.0 0.00 0.00 0.00 96 1013.9
20260906111554 22 207 0.0 1.6 0.00 0.00 0.00 95 1013.9
20260906111049 22 204 0.0 0.0 0.00 0.00 0.00 95 1014.2
20260906110548 22 217 0.0 0.0 0.00 0.00 0.00 95 1013.9
20260906110047 22 218 0.0 0.0 0.00 0.00 0.00 94 1013.9
20260906105543 22 215 0.0 1.6 0.00 0.00 0.00 94 1013.9
20260906105040 22 277 1.6 1.6 0.00 0.00 0.00 94 1013.9
20260906104538 22 284 1.6 3.2 0.00 0.00 0.00 93 1013.9
20260906104037 22 255 1.6 1.6 0.00 0.00 0.00 93 1013.9
20260906103536 22 253 0.0 1.6 0.00 0.00 0.00 93 1013.5
20260906103031 22 243 0.0 1.6 0.00 0.00 0.00 93 1013.9
20260906102531 22 245 0.0 1.6 0.00 0.00 0.00 93 1013.9
20260906102026 22 245 1.6 1.6 0.00 0.00 0.00 93 1013.9
20260906101521 22 238 1.6 1.6 0.00 0.00 0.00 93 1013.5
20260906101016 22 252 0.0 1.6 0.00 0.00 0.00 93 1013.5
20260906100511 22 256 1.6 1.6 0.00 0.00 0.00 93 1013.5
20260906100006 22 247 0.0 1.6 0.00 0.00 0.00 93 1013.9
20260906095500 22 260 3.2 4.8 0.00 0.00 0.00 93 1013.9
20260906094956 23 230 3.2 4.8 0.00 0.00 0.00 93 1013.9
20260906094455 23 321 1.6 3.2 0.00 0.00 0.00 93 1013.9
20260906093951 23 247 3.2 4.8 0.00 0.00 0.00 93 1013.9
20260906093448 23 334 3.2 3.2 0.00 0.00 0.00 93 1013.9
20260906092947 23 237 0.0 1.6 0.00 0.00 0.00 94 1013.5
20260906092447 23 236 0.0 1.6 0.00 0.00 0.00 94 1013.5
20260906091942 23 265 3.2 3.2 0.00 0.00 0.00 95 1013.5
20260906091438 23 213 0.0 0.0 0.00 0.00 0.00 95 1013.5
20260906090934 22 202 0.0 0.0 0.00 0.00 0.00 94 1013.5
20260906090429 22 233 0.0 0.0 0.00 0.00 0.00 94 1013.9
20260906085924 22 240 0.0 0.0 0.00 0.00 0.00 94 1013.5
20260906085423 22 210 0.0 0.0 0.00 0.00 0.00 93 1013.5
20260906084922 23 207 0.0 0.0 0.00 0.00 0.00 93 1013.5
20260906084417 23 197 0.0 0.0 0.00 0.00 0.00 93 1013.2
20260906083916 23 219 0.0 1.6 0.00 0.00 0.00 93 1013.2
20260906083412 23 239 0.0 3.2 0.00 0.00 0.00 93 1013.2
20260906082911 23 232 3.2 3.2 0.00 0.00 0.00 94 1013.2
20260906082407 23 243 3.2 3.2 0.00 0.00 0.00 94 1013.2
20260906081903 23 251 0.0 0.0 0.00 0.00 0.00 94 1013.2
20260906081358 23 336 1.6 1.6 0.00 0.00 0.00 94 1013.5
20260906080854 23 304 1.6 3.2 0.00 0.00 0.00 94 1013.2
20260906080350 23 247 0.0 0.0 0.00 0.00 0.00 94 1012.8
20260906075849 23 233 0.0 0.0 0.00 0.00 0.00 94 1012.8
20260906075344 23 245 1.6 3.2 0.00 0.00 0.00 94 1012.8
20260906074840 23 293 3.2 3.2 0.00 0.00 0.00 94 1012.8
20260906074339 23 249 0.0 1.6 0.00 0.00 0.00 94 1012.8
20260906073838 23 279 1.6 3.2 0.00 0.00 0.00 94 1013.2
20260906073333 23 280 3.2 4.8 0.00 0.00 0.00 93 1012.8
20260906072830 23 261 1.6 3.2 0.00 0.00 0.00 93 1012.8
20260906072326 24 234 0.0 1.6 0.00 0.00 0.00 93 1012.8
20260906071821 24 227 0.0 1.6 0.00 0.00 0.00 92 1012.8
20260906071321 24 252 0.0 1.6 0.00 0.00 0.00 92 1012.8
20260906070818 24 235 0.0 0.0 0.00 0.00 0.00 92 1013.2
20260906070314 24 25 1.6 1.6 0.00 0.00 0.00 91 1013.2
20260906065813 24 319 1.6 3.2 0.00 0.00 0.00 91 1013.2
20260906065308 24 273 1.6 3.2 0.00 0.00 0.00 91 1013.2
20260906064804 24 236 1.6 1.6 0.00 0.00 0.00 91 1013.2
20260906064300 25 262 1.6 3.2 0.00 0.00 0.00 91 1013.2
20260906063754 25 247 0.0 3.2 0.00 0.00 0.00 91 1013.5
20260906063250 25 242 1.6 1.6 0.00 0.00 0.00 91 1013.5
20260906062745 25 242 0.0 3.2 0.00 0.00 0.00 91 1013.2
20260906062244 25 240 0.0 3.2 0.00 0.00 0.00 91 1013.5
20260906061740 25 250 0.0 0.0 0.00 0.00 0.00 91 1013.5
20260906061237 25 229 0.0 1.6 0.00 0.00 0.00 91 1013.5
20260906060731 25 261 1.6 1.6 0.00 0.00 0.00 91 1013.9
20260906060229 25 215 0.0 1.6 0.00 0.00 0.00 91 1013.9
20260906055725 25 305 3.2 4.8 0.00 0.00 0.00 90 1013.9
20260906055219 25 226 0.0 0.0 0.00 0.00 0.00 91 1013.5
20260906054715 25 219 0.0 0.0 0.00 0.00 0.00 91 1013.9
20260906054216 25 187 0.0 0.0 0.00 0.00 0.00 91 1014.2
20260906053713 25 235 0.0 4.8 0.00 0.00 0.00 91 1013.9
20260906053208 25 267 1.6 3.2 0.00 0.00 0.00 92 1014.2
20260906052702 25 280 4.8 12.9 0.00 0.00 0.00 93 1014.2
20260906052159 25 279 1.6 9.7 0.00 0.00 0.00 94 1014.5
20260906051655 25 257 3.2 12.9 0.00 0.00 0.00 94 1014.5
20260906051155 25 327 6.4 11.3 0.00 0.00 0.00 94 1014.5
20260906050650 25 325 4.8 9.7 0.00 0.00 0.00 94 1014.5
20260906050145 25 300 4.8 6.4 0.00 0.00 0.00 94 1014.2
20260906045644 25 301 4.8 6.4 0.00 0.00 0.00 94 1014.2
20260906045139 25 238 0.0 0.0 0.00 0.00 0.00 94 1013.9
20260906044635 25 235 1.6 1.6 0.00 0.00 0.00 94 1013.9
20260906044130 25 195 0.0 1.6 0.00 0.00 0.00 94 1013.9
20260906043626 25 180 0.0 1.6 0.00 0.00 0.00 93 1013.9
20260906043121 25 162 1.6 1.6 0.00 0.00 0.00 93 1013.9
20260906042621 25 123 3.2 3.2 0.00 0.00 0.00 93 1013.5
20260906042116 25 191 0.0 1.6 0.00 0.00 0.00 93 1013.5
20260906041612 25 192 0.0 3.2 0.00 0.00 0.00 93 1013.9
20260906041111 25 155 0.0 3.2 0.00 0.00 0.00 93 1013.5
20260906040607 25 147 1.6 3.2 0.00 0.00 0.00 93 1013.5
20260906035557 25 176 0.0 0.0 0.00 0.00 0.00 91 1013.5
20260906035054 26 194 0.0 0.0 0.00 0.00 0.00 90 1013.9
20260906034553 26 199 0.0 0.0 0.00 0.00 0.00 90 1013.9
20260906034048 26 194 1.6 1.6 0.00 0.00 0.00 90 1013.9
20260906033543 26 213 1.6 1.6 0.00 0.00 0.00 89 1014.2
20260906033039 26 285 1.6 3.2 0.00 0.00 0.00 89 1013.9
20260906032536 26 212 0.0 0.0 0.00 0.00 0.00 89 1013.9
20260906032030 26 227 1.6 1.6 0.00 0.00 0.00 88 1013.9
20260906031526 26 236 3.2 3.2 0.00 0.00 0.00 88 1013.9
20260906031021 26 258 3.2 3.2 0.00 0.00 0.00 88 1013.9
20260906030520 26 245 0.0 1.6 0.00 0.00 0.00 88 1013.9
20260906030020 26 211 0.0 0.0 0.00 0.00 0.00 87 1013.5
20260906025520 26 221 0.0 0.0 0.00 0.00 0.00 86 1013.9
20260906025018 26 231 0.0 0.0 0.00 0.00 0.00 86 1013.9
20260906024514 26 231 0.0 1.6 0.00 0.00 0.00 85 1013.9
20260906024013 27 235 1.6 1.6 0.00 0.00 0.00 85 1014.2
20260906023510 27 249 1.6 1.6 0.00 0.00 0.00 85 1014.2
20260906023004 27 234 0.0 1.6 0.00 0.00 0.00 85 1014.2
20260906022500 27 222 0.0 0.0 0.00 0.00 0.00 84 1014.2
20260906021955 27 245 3.2 4.8 0.00 0.00 0.00 84 1014.2
20260906021449 27 235 0.0 1.6 0.00 0.00 0.00 83 1014.2
20260906020944 27 226 0.0 3.2 0.00 0.00 0.00 83 1014.2
20260906020438 27 277 1.6 4.8 0.00 0.00 0.00 82 1014.2
20260906015933 27 223 1.6 1.6 0.00 0.00 0.00 82 1014.2
20260906015432 27 281 3.2 3.2 0.00 0.00 0.00 83 1014.2
20260906014932 27 234 4.8 6.4 0.00 0.00 0.00 83 1014.5
20260906014432 27 234 4.8 12.9 0.00 0.00 0.00 84 1014.5
20260906013928 27 317 11.3 12.9 0.00 0.00 0.00 87 1014.5
20260906013423 27 325 6.4 6.4 0.00 0.00 0.00 87 1014.2
20260906012919 27 252 1.6 4.8 0.00 0.00 0.00 88 1013.9
20260906012419 27 269 4.8 4.8 0.00 0.00 0.00 88 1013.9
20260906011918 27 324 1.6 4.8 0.00 0.00 0.00 88 1013.9
20260906011414 27 294 1.6 3.2 0.00 0.00 0.00 88 1013.5
20260906010909 27 255 0.0 1.6 0.00 0.00 0.00 87 1013.5
20260906010404 27 241 0.0 0.0 0.00 0.00 0.00 87 1013.5
20260906005900 28 245 0.0 0.0 0.00 0.00 0.00 86 1013.5
20260906005400 28 243 0.0 1.6 0.00 0.00 0.00 86 1012.8
20260906004859 28 233 0.0 0.0 0.00 0.00 0.00 85 1012.8
20260906004359 28 237 0.0 1.6 0.00 0.00 0.00 85 1013.2
20260906003854 28 237 1.6 3.2 0.00 0.00 0.00 85 1013.2
20260906003349 28 255 1.6 3.2 0.00 0.00 0.00 84 1013.2
20260906002845 28 238 0.0 1.6 0.00 0.00 0.00 84 1013.2
20260906002344 28 271 0.0 1.6 0.00 0.00 0.00 83 1013.2
20260906001840 28 279 1.6 1.6 0.00 0.00 0.00 83 1012.8
20260906001335 28 268 1.6 3.2 0.00 0.00 0.00 82 1012.8
20260906000830 28 250 1.6 3.2 0.00 0.00 0.00 82 1012.5
20260906000326 28 282 1.6 1.6 0.00 0.00 0.00 82 1012.5
20260905235820 28 241 0.0 3.2 0.00 0.00 0.00 82 1012.8
20260905235320 28 230 0.0 3.2 0.00 0.00 0.00 81 1012.5
20260905234815 28 261 1.6 3.2 0.00 0.00 0.00 81 1012.8
20260905234310 29 230 3.2 3.2 0.00 0.00 0.00 81 1013.2
20260905233805 29 238 1.6 1.6 0.00 0.00 0.00 81 1012.8
20260905233306 29 211 0.0 0.0 0.00 0.00 0.00 81 1012.8
20260905232804 29 222 0.0 0.0 0.00 0.00 0.00 80 1012.8
20260905232301 29 245 1.6 4.8 0.00 0.00 0.00 80 1012.8
20260905231756 29 255 1.6 1.6 0.00 0.00 0.00 79 1012.8
20260905231251 30 233 3.2 4.8 0.00 0.00 0.00 78 1012.5
20260905230748 30 240 3.2 3.2 0.00 0.00 0.00 77 1012.8
20260905230245 30 240 1.6 3.2 0.00 0.00 0.00 77 1012.8
20260905225745 30 250 4.8 6.4 0.00 0.00 0.00 77 1012.8
20260905225240 30 224 1.6 4.8 0.00 0.00 0.00 77 1012.8
20260905224739 30 211 1.6 4.8 0.00 0.00 0.00 77 1012.8
20260905224235 30 194 0.0 6.4 0.00 0.00 0.00 76 1012.8
20260905223731 30 251 9.7 12.9 0.00 0.00 0.00 76 1013.2
20260905223228 30 265 8.0 12.9 0.00 0.00 0.00 76 1013.2
20260905222723 30 236 3.2 9.7 0.00 0.00 0.00 77 1012.8
20260905222222 30 263 11.3 14.5 0.00 0.00 0.00 76 1012.8
20260905221718 30 222 4.8 11.3 0.00 0.00 0.00 76 1012.8
20260905221215 31 261 4.8 12.9 0.00 0.00 0.00 76 1012.8
20260905220711 31 297 3.2 9.7 0.00 0.00 0.00 75 1012.8
20260905220206 31 296 4.8 12.9 0.00 0.00 0.00 75 1013.2
20260905215706 31 217 3.2 9.7 0.00 0.00 0.00 74 1012.8
20260905215202 31 234 4.8 11.3 0.00 0.00 0.00 74 1012.8
20260905214658 31 234 4.8 12.9 0.00 0.00 0.00 74 1012.8
20260905214152 31 260 6.4 6.4 0.00 0.00 0.00 74 1012.8
20260905213648 32 202 8.0 12.9 0.00 0.00 0.00 73 1012.8
20260905213143 32 292 4.8 16.1 0.00 0.00 0.00 72 1012.8
20260905212638 32 265 3.2 4.8 0.00 0.00 0.00 72 1012.8
20260905212138 32 235 0.0 6.4 0.00 0.00 0.00 73 1012.8
20260905211632 32 243 1.6 9.7 0.00 0.00 0.00 72 1012.8
20260905211128 32 229 3.2 12.9 0.00 0.00 0.00 70 1012.8
20260905210625 32 222 1.6 9.7 0.00 0.00 0.00 70 1012.8
20260905210119 33 272 3.2 4.8 0.00 0.00 0.00 69 1012.8
20260905205618 33 225 1.6 16.1 0.00 0.00 0.00 70 1012.8
20260905205118 32 203 1.6 3.2 0.00 0.00 0.00 70 1012.5
20260905204617 33 250 4.8 9.7 0.00 0.00 0.00 69 1012.8
20260905204113 33 222 6.4 9.7 0.00 0.00 0.00 69 1012.5
20260905203613 33 242 4.8 4.8 0.00 0.00 0.00 68 1012.8
20260905203108 33 221 3.2 6.4 0.00 0.00 0.00 68 1012.5
20260905202604 33 242 3.2 4.8 0.00 0.00 0.00 67 1012.8
20260905202059 33 207 1.6 9.7 0.00 0.00 0.00 66 1012.8
20260905201555 33 266 1.6 4.8 0.00 0.00 0.00 64 1012.8
20260905201054 33 230 0.0 1.6 0.00 0.00 0.00 64 1012.8
20260905200550 33 229 0.0 3.2 0.00 0.00 0.00 65 1012.8
20260905200050 33 255 0.0 3.2 0.00 0.00 0.00 64 1013.2
20260905195543 33 249 3.2 3.2 0.00 0.00 0.00 63 1013.2
20260905195039 33 250 1.6 1.6 0.00 0.00 0.00 63 1013.2
20260905194538 33 269 4.8 4.8 0.00 0.00 0.00 64 1013.5
20260905194033 33 282 8.0 9.7 0.00 0.00 0.00 64 1013.9
20260905193528 33 313 4.8 9.7 0.00 0.00 0.00 64 1013.9
20260905193023 35 263 3.2 9.7 0.00 0.00 0.00 63 1013.9
20260905192518 33 307 6.4 12.9 0.00 0.00 0.00 64 1013.9
20260905192015 35 269 8.0 11.3 0.00 0.00 0.00 62 1013.9
20260905191513 35 13 6.4 9.7 0.00 0.00 0.00 64 1014.2
20260905191012 35 223 1.6 3.2 0.00 0.00 0.00 61 1014.2
20260905190510 34 231 3.2 6.4 0.00 0.00 0.00 61 1014.2
20260905190009 34 136 0.0 9.7 0.00 0.00 0.00 62 1014.2
20260905185504 34 174 6.4 9.7 0.00 0.00 0.00 62 1014.2
20260905185003 33 189 4.8 4.8 0.00 0.00 0.00 62 1013.9
20260905184458 34 126 9.7 11.3 0.00 0.00 0.00 63 1013.9
20260905183957 33 114 6.4 9.7 0.00 0.00 0.00 67 1013.9
20260905183456 33 198 1.6 6.4 0.00 0.00 0.00 67 1013.9
20260905182951 32 122 1.6 3.2 0.00 0.00 0.00 68 1014.2
20260905182451 34 129 6.4 9.7 0.00 0.00 0.00 66 1014.5
20260905181946 33 216 3.2 6.4 0.00 0.00 0.00 67 1014.2
20260905181441 33 158 4.8 4.8 0.00 0.00 0.00 67 1014.5
20260905180940 33 270 3.2 4.8 0.00 0.00 0.00 68 1014.5
20260905180435 33 91 4.8 6.4 0.00 0.00 0.00 71 1014.9
20260905175930 32 177 3.2 9.7 0.00 0.00 0.00 71 1014.9
20260905175429 33 153 3.2 6.4 0.00 0.00 0.00 71 1014.9
20260905174925 32 237 1.6 9.7 0.00 0.00 0.00 72 1014.9
20260905174420 33 179 4.8 9.7 0.00 0.00 0.00 72 1015.2
20260905173916 32 235 3.2 4.8 0.00 0.00 0.00 72 1014.9
20260905173412 31 321 3.2 6.4 0.00 0.00 0.00 76 1014.9
20260905172907 31 275 4.8 6.4 0.00 0.00 0.00 75 1015.6
20260905172405 31 320 3.2 6.4 0.00 0.00 0.00 77 1015.2
20260905171901 32 263 4.8 9.7 0.00 0.00 0.00 77 1015.2
20260905171357 32 250 1.6 4.8 0.00 0.00 0.00 76 1015.6
20260905170854 32 209 3.2 6.4 0.00 0.00 0.00 79 1015.6
20260905170349 32 274 4.8 9.7 0.00 0.00 0.00 76 1015.6
20260905165848 32 232 1.6 4.8 0.00 0.00 0.00 77 1015.6
20260905165343 31 224 0.0 3.2 0.00 0.00 0.00 77 1015.9
20260905164838 31 316 6.4 9.7 0.00 0.00 0.00 78 1015.6
20260905164333 31 334 6.4 6.4 0.00 0.00 0.00 80 1015.9
20260905163828 31 326 3.2 4.8 0.00 0.00 0.00 78 1015.9
20260905163325 31 197 0.0 3.2 0.00 0.00 0.00 80 1016.2
20260905162820 31 225 3.2 4.8 0.00 0.00 0.00 78 1016.2
20260905162315 31 302 6.4 6.4 0.00 0.00 0.00 79 1016.2
20260905161815 31 14 3.2 4.8 0.00 0.00 0.00 78 1016.2
20260905161314 31 172 0.0 0.0 0.00 0.00 0.00 79 1016.6
20260905160812 30 188 0.0 4.8 0.00 0.00 0.00 81 1016.6
20260905160308 31 25 3.2 6.4 0.00 0.00 0.00 83 1016.2
20260905155802 30 201 1.6 4.8 0.00 0.00 0.00 82 1016.6
20260905155301 30 115 6.4 6.4 0.00 0.00 0.00 83 1016.2
20260905154801 30 134 3.2 4.8 0.00 0.00 0.00 85 1016.2
20260905154257 30 137 3.2 6.4 0.00 0.00 0.00 84 1016.2
20260905153752 30 104 1.6 3.2 0.00 0.00 0.00 82 1016.2
20260905153248 30 97 3.2 3.2 0.00 0.00 0.00 84 1016.6
20260905152743 30 219 1.6 6.4 0.00 0.00 0.00 87 1016.6
20260905152242 30 250 3.2 3.2 0.00 0.00 0.00 84 1016.6
20260905151741 30 118 4.8 4.8 0.00 0.00 0.00 84 1016.6
20260905151238 29 209 3.2 6.4 0.00 0.00 0.00 87 1016.6
20260905150737 28 263 3.2 3.2 0.00 0.00 0.00 86 1016.6
20260905150237 29 219 0.0 0.0 0.00 0.00 0.00 86 1016.6
20260905145735 28 294 1.6 4.8 0.00 0.00 0.00 88 1016.6
20260905145230 30 243 0.0 0.0 0.00 0.00 0.00 84 1016.6
20260905144729 30 227 0.0 1.6 0.00 0.00 0.00 87 1016.6
20260905144224 28 178 0.0 3.2 0.00 0.00 0.00 87 1016.6
20260905143723 28 155 3.2 4.8 0.00 0.00 0.00 89 1016.9
20260905143223 28 148 0.0 1.6 0.00 0.00 0.00 89 1016.9
20260905142721 27 135 1.6 3.2 0.00 0.00 0.00 92 1016.9
20260905142216 27 245 1.6 3.2 0.00 0.00 0.00 94 1016.9
20260905141712 26 322 0.0 3.2 0.00 0.00 0.00 94 1016.9
20260905141208 26 300 3.2 4.8 0.00 0.00 0.00 95 1017.2
20260905140703 26 219 0.0 1.6 0.00 0.00 0.00 99 1017.2
20260905140203 25 247 3.2 4.8 0.00 0.00 0.00 99 1016.9
20260905135657 25 214 0.0 0.0 0.00 0.00 0.00 99 1016.9
20260905135154 25 300 1.6 3.2 0.00 0.00 0.00 99 1016.9
20260905134652 25 221 0.0 1.6 0.00 0.00 0.00 99 1016.9
20260905134152 25 226 0.0 1.6 0.00 0.00 0.00 99 1016.9
20260905133647 24 224 0.0 0.0 0.00 0.00 0.00 99 1016.9
20260905133141 25 240 1.6 3.2 0.00 0.00 0.00 99 1016.9
20260905132641 25 252 1.6 3.2 0.00 0.00 0.00 99 1016.9
20260905132136 25 225 0.0 1.6 0.00 0.00 0.00 99 1017.2
20260905131631 25 225 1.6 3.2 0.00 0.00 0.00 99 1017.2
20260905131126 24 230 0.0 1.6 0.00 0.00 0.00 99 1017.2
20260905130621 24 196 1.6 3.2 0.00 0.00 0.00 99 1016.9
20260905130120 25 227 0.0 1.6 0.00 0.00 0.00 99 1017.2
20260905125614 24 208 0.0 3.2 0.00 0.00 0.00 99 1017.2
20260905125110 25 257 0.0 3.2 0.00 0.00 0.00 99 1016.9
20260905124607 24 229 0.0 0.0 0.00 0.00 0.00 99 1016.9
20260905124102 24 227 0.0 3.2 0.00 0.00 0.00 99 1017.2
20260905123557 24 203 0.0 3.2 0.00 0.00 0.00 99 1017.2